Location: Asar Burnu
(36.5203°N, 30.5523°E)
Time: 06:54:42
(UTC+00:00)

Cosmos 2227 Rocket - Pass Details

Date: 04 August 2024
Orbit: 839 x 843 km, 71.0° (Epoch: 13 September)

Event Time Altitude Azimuth Distance (km) Brightness Sun altitude
Rises 20:02:32 0° 355° (N) 3,398 6.2 -29.4°
Reaches altitude 10° 20:06:10 10° 19° (NNE) 2,460 5.0 -29.8°
Maximum altitude 20:09:17 15° 53° (NE) 2,125 4.3 -30.1°
Enters shadow 20:09:25 15° 54° (NE) 2,125 4.3 -30.1°
